www.pogodaiklimat.ru

Погода и климат >> Архив погоды >> Индонезия >> Кетапанг


ПОГОДА в Кетапанге

  • Прогноз погоды в Кетапанге
  • Монитор погоды в Кетапанге

АРХИВ ПОГОДЫ в Кетапанге

Время (UTC), дата Ветер
(напр.,м/с)
 
Видим.   Явления Облачность Т
(С)
Тd
(С)
f
(%)
Тe
(С)
Тes
(С)
Комфортность P
(гПа)
Po
(гПа)
Тmin
(С)
Tmax
(С)
R
(мм)
R24
(мм)
S
(см)
18 14.09 ЮВ 3 1500 м дым {туман} 4/0
[Ac trans Ci fib]
+22.9 +21.0 89 +30 +30 очень
душно
1011.9 1010.8
21 14.09 штиль 0 500 м дым {туман} 4/0
[Ci fib]
+21.7 +20.5 93 +27 +27 душно 1011.3 1010.2
00 15.09 В 2 200 м дым {туман} 6/0
[Ac trans Ci fib]
+22.2 +21.2 94 +29 +31 очень
душно
1012.8 1011.7 +21.0
03 15.09 В 5 200 м дым {туман} 6/0
[Ci fib]
+29.8 +21.1 60 +37 +46 очень
душно
1012.4 1011.3
06 15.09 В 2 2500 м дым {туман} 6/0
[Ci fib]
+30.2 +21.8 61 +39 +57 опасность
солнечного
удара
1010.0 1008.9
09 15.09 Ю 5 10 км 5/0
[Ci fib]
+28.7 +23.5 74 +39 +41 очень
душно
1008.5 1007.4
12 15.09 Ю 3 5000 м дым 5/0
[Ci fib]
+27.7 +23.1 76 +37 +37 очень
душно
1009.9 1008.8 +30.8
15 15.09 ЮВ 3 5000 м дым 5/0
[Ci fib]
+25.7 +22.9 85 +34 +34 очень
душно
1012.2 1011.1
18 15.09 ЮВ 2 4500 м 4/0
[Ci fib]
+24.2 +22.2 89 +31 +31 очень
душно
1011.0 1009.9
21 15.09 В 3 1000 м дым {туман} 5/0
[Ci fib]
+23.0 +21.9 94 +31 +31 очень
душно
1010.8 1009.7
00 16.09 В 2 400 м дым {туман} 6/0
[Ci fib]
+23.6 +22.0 91 +30 +33 очень
душно
1012.2 1011.1 +21.8
03 16.09 В 4 300 м дым {туман} 6/0
[Ci fib]
+30.0 +23.0 66 +40 +52 опасность
солнечного
удара
1012.1 1011.8
06 16.09 Ю 3 800 м дым {туман} 6/0
[Ci fib]
+32.7 +22.8 56 +43 +57 опасность
перегрева
1009.1 1008.0
09 16.09 Ю 4 1900 м дым {туман} 4/0
[Ci fib]
+30.0 +22.8 65 +40 +42 очень
душно
1008.0 1007.0
12 16.09 Ю 3 6000 м {туман} 4/0 300 м
[Ci fib]
+27.4 +25.0 87 +39 +39 очень
душно
1009.6 1008.5 +33.0
15 16.09 ЮВ 3 6000 м 4/0
[Ci fib]
+26.4 +23.6 85 +36 +36 очень
душно
1011.6 1010.5
18 16.09 ЮВ 3 6000 м 5/0
[Ci fib]
+24.8 +23.4 92 +33 +33 очень
душно
1010.9 1009.8
21 16.09 ЮВ 2 2500 м дым {туман} 4/0 600 м
[Ci fib]
+24.2 +22.8 92 +32 +32 очень
душно
1011.4 1010.3
00 17.09 ЮВ 4 1000 м дым {туман} 5/0
[Ci fib]
+24.6 +23.2 92 +33 +35 очень
душно
1012.9 1011.8 +23.5
03 17.09 ЮВ 5 2500 м дым 8/3 330 м
[Cu hum Ac trans Ci fib]
+30.0 +24.0 70 +41 +46 опасность
перегрева
1012.9 1011.8
06 17.09 Ю 3 2300 м дым 6/0
[Ci fib]
+32.1 +24.2 63 +44 +58 опасность
перегрева
1010.2 1009.1
09 17.09 Ю 5 2700 м дым 6/0
[Ci fib]
+29.6 +25.0 76 +42 +44 опасность
перегрева
1009.1 1008.1
12 17.09 Ю 4 3000 м дым 5/0
[Ci fib]
+28.2 +24.7 81 +40 +40 очень
душно
1010.9 1009.8 +32.8
15 17.09 ЮВ 5 5000 м дым 5/0
[Ci fib]
+26.3 +23.1 83 +35 +35 очень
душно
1012.5 1011.4
18 17.09 ЮВ 3 6000 м 4/0
[Ci fib]
+24.6 +23.2 92 +33 +33 очень
душно
1011.9 1010.8
21 17.09 В 3 2500 м дым 4/0
[Ci sp]
+23.5 +22.5 94 +31 +31 очень
душно
1012.2 1011.1
00 18.09 ЮВ 4 600 м дым {туман} 4/0
[Ci fib]
+24.5 +23.3 93 +33 +35 очень
душно
1013.6 1012.5 +23.2
03 18.09 В 6 2500 м дым {туман} 5/0
[Ci fib]
+31.2 +22.6 60 +41 +48 опасность
перегрева
1013.1 1012.0
06 18.09 ЮЗ 4 2700 м дым 6/0
[Ci fib]
+31.4 +23.2 62 +42 +53 опасность
перегрева
1010.4 1009.4
09 18.09 Ю 6 8000 м {туман} 6/0
[Ci fib]
+29.4 +24.2 74 +41 +42 опасность
перегрева
1009.7 1008.6
12 18.09 ЮВ 5 5000 м дым 5/0
[Ci fib]
+28.2 +24.1 78 +39 +39 очень
душно
1011.1 1010.0 +34.0
15 18.09 ЮВ 6 2500 м дым {туман} 4/0
[Ci fib]
+26.0 +22.9 83 +35 +35 очень
душно
1012.8 1011.7
18 18.09 ЮВ 3 6000 м 4/0
[Ci fib]
+24.3 +22.8 91 +32 +32 очень
душно
1012.4 1011.3
21 18.09 СВ 2 3000 м дым 4/0
[Ci fib]
+24.0 +22.0 89 +31 +31 очень
душно
1012.4 1011.4
00 19.09 В 3 400 м дым {туман} 5/0
[Ci fib]
+24.7 +23.5 93 +33 +35 очень
душно
1013.6 1012.5 +23.2
03 19.09 В 6 2300 м дым 4/0
[Ci fib]
+32.0 +21.0 52 +39 +47 очень
душно
1012.6 1011.5
06 19.09 Ю 4 2800 м дым {туман} 4/0
[Ci fib]
+32.0 +22.6 58 +42 +55 опасность
перегрева
1009.9 1008.8
09 19.09 ЮЗ 4 6000 м 5/0
[Ci fib]
+29.8 +24.4 73 +42 +45 опасность
перегрева
1009.0 1007.9
12 19.09 ЮВ 5 4000 м дым 5/0
[Ci fib]
+28.7 +23.3 73 +39 +39 очень
душно
1010.8 1009.7 +34.2
15 19.09 ЮВ 3 5000 м дым 5/0
[Ci fib]
+25.8 +22.4 82 +34 +34 очень
душно
1012.4 1011.4
18 19.09 ЮВ 3 2500 м дым 5/0
[Ci fib]
+24.2 +22.2 89 +31 +31 очень
душно
1011.4 1010.3
21 19.09 ЮВ 2 2000 м дым 4/0
[Ci fib]
+23.4 +22.0 92 +32 +32 очень
душно
1011.7 1010.6
00 20.09 В 4 800 м дым {туман} 5/0
[Ci fib]
+25.0 +22.2 84 +32 +34 очень
душно
1012.8 1011.7 +23.0
03 20.09 ЮВ 5 2500 м дым {туман} 4/0
[Ci fib]
+29.6 +21.8 63 +38 +48 очень
душно
1012.7 1011.6
06 20.09 ЮВ 2 4500 м дым {туман} 8/1 360 м
[Cu hum Ac trans Ci fib]
+33.0 +22.5 54 +42 +53 опасность
перегрева
1010.0 1008.9
09 20.09 Ю 4 6000 м {туман} 6/0
[Ac trans Ci fib]
+29.3 +24.4 75 +41 +43 опасность
перегрева
1009.2 1008.1
12 20.09 Ю 3 6000 м {туман} 5/0
[Ci fib]
+27.8 +24.3 81 +39 +39 очень
душно
1010.8 1009.7 +33.4
15 20.09 ЮВ 3 3000 м дым 5/0
[Ci fib]
+25.2 +23.8 92 +34 +34 очень
душно
1012.3 1011.2
18 20.09 ЮВ 3 2500 м дым 5/0
[Ci fib]
+25.5 +23.4 88 +34 +34 очень
душно
1011.4 1010.3
21 20.09 ЮВ 2 2000 м дым 6/0
[Ci fib]
+24.2 +23.1 94 +32 +32 очень
душно
1011.3 1010.2
00 21.09 ЮВ 2 300 м дым {туман} ?/? +24.3 +23.0 92 +32 +32 очень
душно
1013.0 1012.0 +23.3
03 21.09 ЮВ 4 2300 м дым {туман} 9/4 360 м
[Cu hum Ci fib]
+31.0 +23.0 62 +41 +47 опасность
перегрева
1012.6 1011.5
06 21.09 Ю 5 2700 м дым {туман} 8/4 360 м
[Cu hum Ac trans Ci fib]
+31.0 +24.2 67 +43 +48 опасность
перегрева
1009.8 1008.7
09 21.09 Ю 4 5000 м дым 6/0
[Ci fib]
+29.0 +23.5 72 +39 +42 очень
душно
1009.1 1008.0
12 21.09 Ю 5 6000 м {туман} 6/0
[Ac trans Ci fib]
+27.6 +24.0 81 +38 +38 очень
душно
1010.9 1009.8 +32.2

 

Местоположение метеостанции Кетапанг (Индонезия): широта -1.85 долгота 109.96 высота над уровнем моря 9 м.

В архиве по умолчанию представлена погода в Кетапанге за последнюю неделю. Архивные данные за месяц целиком и за предыдущие месяцы, начиная с января 2011 года, Вы можете получить, выбрав интересующий диапазон дат из раскрывающегося списка и нажав кнопку "Ввод!".


*Определитесь, кто Вы:
робот инопланетянин человек

Внимание! Время в таблицах - всемирное. Для получения местного времени необходимо прибавить поправку, которая равна 7 ч.

Смотрите также архив погоды в соседних городах и на ближайших метеорологических станциях:

Погода в Понтианаке (Индонезия) (199 км)
Погода в Пангкалан-Буне (Индонезия) (215 км)
Погода в Нангапинохе (Индонезия) (262 км)
Погода в Танджунгпандане (Индонезия) (265 км)
Погода в Синтанге (Индонезия) (280 км)
Погода в Кучинге (Малайзия) (373 км)
Погода в Парохе (Индонезия) (409 км)
Погода в Панкалпинанге (Индонезия) (427 км)
Погода на Путусиббау (Индонезия) (446 км)
Погода в Паоанкарая (Индонезия) (459 км)

Пояснения к столбцам:

Ветер - указаны скорость ветра в м/с - средняя за 10 мин, порывы в срок и между сроками (в фигурных скобках) и направление, откуда дует ветер: С - северный, СВ - северо-восточный, В - восточный, ЮВ - юго-восточный, Ю - южный, ЮЗ - юго-западный, З - западный, СЗ - северо-западный.
Видимость - горизонтальная дальность видимости в метрах или километрах. При видимости от 1 до 10 км при отсутствии осадков обычно наблюдается дымка, при ухудшении видимости до 1 км и менее - туман. В сухую погоду видимость может ухудшаться дымом, пылью или мглою.
Явления - указаны атмосферные явления, наблюдавшиеся в срок или в последний час перед сроком; фигурными скобками обозначены явления, наблюдавшиеся между сроками (за 1-3 часа до срока); квадратными скобками обозначены град или гололедные отложения с указанием их диаметра в мм.
Облачность - указаны через наклонную черту общая и нижняя облачность в баллах и высота нижней границы облаков в метрах; квадратными скобками обозначены формы облаков: Ci - перистые, Cs - перисто-слоистые, Cc - перисто-кучевые, Ac - высококучевые, As - высокослоистые, Sc - слоисто-кучевые, Ns - слоисто-дождевые, Cu - кучевые, Cb - кучево-дождевые. Подробнее классификацию облаков см. в Атласе облаков (PDF).
T - Температура воздуха - температура, измеренная на высоте 2 м над землей.
Td - Температура точки росы - температура, при понижении до которой содержащийся в воздухе водяной пар достигнет насыщения.
f - Относительная влажность воздуха - влажноcть воздуха, измеренная на высоте 2 м над землей.
Te - Эффективная температура - температура, которую ощущает одетый по сезону человек в тени. Характеристика душности погоды. При расчете учитывается влияние влажности воздуха и скорости ветра на теплоощущения человека.
Tes - Эффективная температура на солнце - температура, которую ощущает человек, с поправкой на солнечный нагрев. Характеристика знойности погоды. Зависит от высоты солнца над горизонтом, облачности и скорости ветра. Ночью, в пасмурную погоду, а также при ветре 12 м/с и более поправка равна нулю.
P - Атмосферное давление - приведенное к уровню моря атмосферное давление.
Po - Атмосферное давление - измеренное на уровне метеостанции атмосферное давление.
Tmin - Минимальная температура - минимум температуры воздуха на высоте 2 м над землей.
Tmax - Максимальная температура - максимум температуры воздуха на высоте 2 м над землей.
R - Количество осадков - Количество выпавших осадков за период времени, мм. При наведении курсора мыши на число - период времени, за который выпало указанное количество осадков.
R24 - Количество осадков - Количество выпавших осадков за 24 часа, мм.
S - Снежный покров - Высота снежного покрова, см. При наведении курсора мыши на число - состояние снежного покрова и степень покрытия местности в баллах.